Date String (YYYY-MM-DD hh:mm:ss) UTC,Instrument flags,absolute air pressure of the measurement (hPa),sample flow rate (lpm),inlet stack bypass flow (lpm),air temperature of the measurement (°C),ambient temperature measured by the external sensor (°C),aerosol sample conditioner tube jacket temperature (°C),OPC LED temperature (°C),internal box temperature (°C),relative humidity of the measurement (%),span deviation,mass concentration of particles derived from Lorenz-Mie calculation of OPC scattering (μg/m³),mass concentration of particles derived from Lorenz-Mie calculation of OPC scattering (μg/m³),mass concentration of particles derived from Lorenz-Mie calculation of OPC scattering (μg/m³)
DateTimeUTC,F1_M11,P_M11,Q1_M11,Q2_M11,T1_M11,T2_M11,T3_M11,T4_M11,T5_M11,U1_M11,ZSPAN_M11,X2_M11,X0_M11,X1_M11
2023-12-04 01:00:00,SystemResetWarning,0826.2,5.00,000.00,018.7,018.0,000.0,027.1,020.0,17.7,0000.0,0003.44,0009.48,0002.73
2023-12-04 01:01:00,SystemResetWarning,0826.2,5.00,000.00,018.7,017.9,000.0,027.1,020.0,17.4,0000.0,0003.49,0009.41,0002.80
2023-12-04 01:02:00,SystemResetWarning,0826.2,4.99,000.00,018.7,017.9,000.0,027.1,020.0,17.7,0000.0,0003.54,0008.97,0002.87
2023-12-04 01:03:00,SystemResetWarning,0826.2,5.00,000.00,018.7,017.8,000.0,027.1,020.0,17.6,0000.0,0003.55,0009.44,0002.93
2023-12-04 01:04:00,SystemResetWarning,0826.3,4.99,000.00,018.7,017.8,000.0,027.1,020.0,17.4,0000.0,0003.61,0009.28,0003.01
2023-12-04 01:05:00,SystemResetWarning,0826.3,5.00,000.00,018.7,017.7,000.0,027.1,020.0,17.4,0000.0,0003.67,0008.65,0003.08
2023-12-04 01:06:00,SystemResetWarning,0826.3,5.00,000.00,018.7,017.7,000.0,027.2,020.0,17.1,0000.0,0003.72,0008.61,0003.14
2023-12-04 01:07:00,SystemResetWarning,0826.3,5.00,000.00,018.7,017.7,000.0,027.2,020.0,16.8,0000.0,0003.74,0008.47,0003.17
2023-12-04 01:08:00,SystemResetWarning,0826.3,5.00,000.00,018.7,017.7,000.0,027.2,020.0,16.1,0000.0,0003.77,0008.40,0003.18
2023-12-04 01:09:00,SystemResetWarning,0826.2,5.00,000.00,018.7,017.7,000.0,027.2,020.0,15.5,0000.0,0003.77,0008.73,0003.19
2023-12-04 01:10:00,SystemResetWarning,0826.2,5.00,000.00,018.7,017.7,000.0,027.2,020.0,15.4,0000.0,0003.77,0008.83,0003.20
2023-12-04 01:11:00,SystemResetWarning,0826.2,5.00,000.00,018.7,017.7,000.0,027.2,020.0,15.2,0000.0,0003.73,0008.76,0003.18
2023-12-04 01:12:00,SystemResetWarning,0826.2,5.01,000.00,018.7,017.7,000.0,027.2,020.0,15.0,0000.0,0003.72,0008.72,0003.17
2023-12-04 01:13:00,SystemResetWarning,0826.2,5.00,000.00,018.7,017.7,000.0,027.2,020.0,15.0,0000.0,0003.71,0008.75,0003.17
2023-12-04 01:14:00,SystemResetWarning,0826.2,5.00,000.00,018.7,017.6,000.0,027.2,020.0,15.2,0000.0,0003.73,0008.51,0003.16
2023-12-04 01:15:00,SystemResetWarning,0826.2,5.01,000.00,018.7,017.6,000.0,027.2,020.0,15.3,0000.0,0003.73,0008.55,0003.14
2023-12-04 01:16:00,SystemResetWarning,0826.2,5.00,000.00,018.7,017.6,000.0,027.2,020.0,15.3,0000.0,0003.67,0008.40,0003.10
2023-12-04 01:17:00,SystemResetWarning,0826.2,4.99,000.00,018.7,017.6,000.0,027.2,020.0,15.1,0000.0,0003.62,0008.51,0003.02
2023-12-04 01:18:00,SystemResetWarning,0826.2,4.99,000.00,018.7,017.6,000.0,027.2,020.0,14.8,0000.0,0003.53,0008.53,0002.91
2023-12-04 01:19:00,SystemResetWarning,0826.2,4.99,000.00,018.6,017.5,000.0,027.2,020.0,14.8,0000.0,0003.46,0008.42,0002.80
2023-12-04 01:20:00,SystemResetWarning,0826.2,5.00,000.00,018.6,017.5,000.0,027.2,020.0,14.5,0000.0,0003.40,0008.12,0002.71
2023-12-04 01:21:00,SystemResetWarning,0826.2,4.99,000.00,018.6,017.5,000.0,027.2,020.0,14.8,0000.0,0003.35,0008.49,0002.61
2023-12-04 01:22:00,SystemResetWarning,0826.2,5.00,000.00,018.6,017.5,000.0,027.2,020.0,14.7,0000.0,0003.35,0008.58,0002.56
2023-12-04 01:23:00,SystemResetWarning,0826.2,5.00,000.00,018.6,017.5,000.0,027.2,020.0,15.2,0000.0,0003.33,0008.52,0002.50
2023-12-04 01:24:00,SystemResetWarning,0826.2,5.00,000.00,018.6,017.5,000.0,027.2,020.0,15.3,0000.0,0003.30,0008.46,0002.45
2023-12-04 01:25:00,SystemResetWarning,0826.2,5.00,000.00,018.6,017.4,000.0,027.2,020.0,15.4,0000.0,0003.29,0008.45,0002.38
2023-12-04 01:26:00,SystemResetWarning,0826.2,5.00,000.00,018.6,017.4,000.0,027.2,020.0,15.5,0000.0,0003.24,0008.25,0002.31
2023-12-04 01:27:00,SystemResetWarning,0826.2,5.00,000.00,018.6,017.4,000.0,027.2,020.0,15.6,0000.0,0003.20,0007.42,0002.26
2023-12-04 01:28:00,SystemResetWarning,0826.2,5.00,000.00,018.6,017.4,000.0,027.2,020.0,15.2,0000.0,0003.20,0007.48,0002.23
2023-12-04 01:29:00,SystemResetWarning,0826.2,5.00,000.00,018.6,017.4,000.0,027.2,020.0,14.7,0000.0,0003.20,0007.54,0002.20
2023-12-04 01:30:00,SystemResetWarning,0826.2,5.00,000.00,018.6,017.4,000.0,027.2,020.0,14.5,0000.0,0003.20,0007.58,0002.20
2023-12-04 01:31:00,SystemResetWarning,0826.1,5.00,000.00,018.6,017.4,000.0,027.2,020.0,14.8,0000.0,0003.23,0007.62,0002.23
2023-12-04 01:32:00,SystemResetWarning,0826.2,5.00,000.00,018.6,017.4,000.0,027.2,020.0,14.9,0000.0,0003.24,0007.04,0002.28
2023-12-04 01:33:00,SystemResetWarning,0826.2,5.00,000.00,018.6,017.4,000.0,027.2,020.0,15.0,0000.0,0003.27,0006.68,0002.31
2023-12-04 01:34:00,SystemResetWarning,0826.2,5.00,000.00,018.6,017.4,000.0,027.2,020.0,15.1,0000.0,0003.29,0006.82,0002.34
2023-12-04 01:35:00,SystemResetWarning,0826.2,5.00,000.00,018.6,017.4,000.0,027.2,020.0,15.4,0000.0,0003.34,0007.08,0002.37
2023-12-04 01:36:00,SystemResetWarning,0826.1,5.00,000.00,018.6,017.4,000.0,027.2,020.0,15.5,0000.0,0003.33,0007.23,0002.38
2023-12-04 01:37:00,SystemResetWarning,0826.1,5.00,000.00,018.6,017.4,000.0,027.1,020.0,15.5,0000.0,0003.33,0007.16,0002.40
2023-12-04 01:38:00,SystemResetWarning,0826.2,5.00,000.00,018.6,017.4,000.0,027.2,020.0,15.5,0000.0,0003.32,0007.53,0002.40
2023-12-04 01:39:00,SystemResetWarning,0826.2,5.00,000.00,018.6,017.4,000.0,027.2,020.0,15.4,0000.0,0003.31,0008.00,0002.43
2023-12-04 01:40:00,SystemResetWarning,0826.1,5.00,000.00,018.6,017.4,000.0,027.1,020.0,15.4,0000.0,0003.30,0009.14,0002.47
2023-12-04 01:41:00,SystemResetWarning,0826.2,5.00,000.00,018.6,017.5,000.0,027.1,020.0,15.4,0000.0,0003.30,0009.19,0002.50
2023-12-04 01:42:00,SystemResetWarning,0826.2,4.99,000.00,018.6,017.5,000.0,027.1,020.0,15.3,0000.0,0003.30,0009.33,0002.52
2023-12-04 01:43:00,SystemResetWarning,0826.2,5.00,000.00,018.6,017.5,000.0,027.1,020.0,15.2,0000.0,0003.29,0009.33,0002.51
2023-12-04 01:44:00,SystemResetWarning,0826.3,5.00,000.00,018.6,017.5,000.0,027.1,020.0,15.1,0000.0,0003.29,0009.35,0002.51
2023-12-04 01:45:00,SystemResetWarning,0826.3,5.00,000.00,018.6,017.5,000.0,027.1,020.0,14.8,0000.0,0003.34,0009.73,0002.52
2023-12-04 01:46:00,SystemResetWarning,0826.2,5.00,000.00,018.7,017.5,000.0,027.1,020.0,14.8,0000.0,0003.32,0009.64,0002.53
2023-12-04 01:47:00,SystemResetWarning,0826.2,5.00,000.00,018.7,017.5,000.0,027.1,020.0,14.8,0000.0,0003.31,0009.52,0002.55
2023-12-04 01:48:00,SystemResetWarning,0826.3,5.00,000.00,018.6,017.5,000.0,027.1,020.0,14.8,0000.0,0003.33,0009.55,0002.58
2023-12-04 01:49:00,SystemResetWarning,0826.3,5.01,000.00,018.7,017.5,000.0,027.1,020.0,14.8,0000.0,0003.36,0009.56,0002.63
2023-12-04 01:50:00,SystemResetWarning,0826.4,5.00,000.00,018.7,017.5,000.0,027.1,020.0,14.9,0000.0,0003.39,0008.86,0002.68
2023-12-04 01:51:00,SystemResetWarning,0826.3,5.00,000.00,018.6,017.4,000.0,027.1,020.0,14.7,0000.0,0003.41,0007.77,0002.71
2023-12-04 01:52:00,SystemResetWarning,0826.2,5.00,000.00,018.6,017.4,000.0,027.1,020.0,14.6,0000.0,0003.42,0007.26,0002.72
2023-12-04 01:53:00,SystemResetWarning,0826.3,5.00,000.00,018.6,017.4,000.0,027.1,020.0,14.6,0000.0,0003.39,0006.78,0002.70
2023-12-04 01:54:00,SystemResetWarning,0826.2,5.00,000.00,018.6,017.4,000.0,027.1,020.0,14.6,0000.0,0003.41,0006.83,0002.68
2023-12-04 01:55:00,SystemResetWarning,0826.2,5.00,000.00,018.6,017.4,000.0,027.1,020.0,14.4,0000.0,0003.39,0006.82,0002.65
2023-12-04 01:56:00,SystemResetWarning,0826.2,4.99,000.00,018.6,017.4,000.0,027.1,020.0,14.3,0000.0,0003.34,0007.16,0002.62
2023-12-04 01:57:00,SystemResetWarning,0826.2,5.00,000.00,018.6,017.4,000.0,027.2,020.0,14.2,0000.0,0003.31,0008.08,0002.59
2023-12-04 01:58:00,SystemResetWarning,0826.2,5.00,000.00,018.6,017.4,000.0,027.2,020.0,14.1,0000.0,0003.30,0008.08,0002.54
2023-12-04 01:59:00,SystemResetWarning,0826.2,4.99,000.00,018.6,017.4,000.0,027.2,020.0,14.0,0000.0,0003.26,0007.96,0002.52
